LIVE Streaming HD
Get Adobe Flash player
Dati meteo stazione (refresh automatico ogni minuto)
Latina(LT) VENTO: VELOCITÀ   PIOGGIA: QTA GIORNO TEMPERATURA: ATTUALE
SPOT: Latina lido
(Hotel Tirreno) Posizione su Googlemap: Latitudine 41.41 Longitudine 12.84
RAFFICA MASSIMA: QTA MENSILE: MASSIMA:
VELOCITÀ MEDIA: QTA ANNUALE: MINIMA:
DIREZIONE: UMIDITÀ: WIND CHILL:
TIPO: DEW POINT:
BEAUFORT: PRESSIONE:
I nostri partner
Latina(LT) nelle ultime ore
Applica filtri in visualizzazione Intervallo delle letture nelle ultime

Ora Direzione Vento Velocita' Vento Media Vento Raffica Max. Temperatura Wind Chill Pioggia Pressione
05:44:43118 °(ESE)4.7 Kts7.3 Kts16.9 Kts18.5 °C14.2 °C0 mm1010.9 Hpa
05:40:26116 °(ESE)4.7 Kts8.2 Kts16.9 Kts18.4 °C13.8 °C0 mm1010.7 Hpa
05:35:28133 °(SE)8.2 Kts7.3 Kts16.9 Kts18.5 °C14.2 °C0 mm1010.7 Hpa
05:30:40113 °(ESE)9 Kts7.3 Kts16.9 Kts18.6 °C14.2 °C0 mm1010.7 Hpa
05:25:20113 °(ESE)8.2 Kts8.2 Kts16.9 Kts18.6 °C14 °C0 mm1010.7 Hpa
05:20:30107 °(ESE)7.3 Kts8.2 Kts16.9 Kts18.7 °C14.1 °C0 mm1010.7 Hpa
05:15:40122 °(ESE)8.2 Kts8.2 Kts16.9 Kts18.7 °C14.2 °C0 mm1010.7 Hpa
05:10:19123 °(ESE)8.2 Kts8.2 Kts16.9 Kts18.7 °C14.2 °C0 mm1010.7 Hpa
05:05:30134 °(SE)6.4 Kts8.2 Kts16.9 Kts18.8 °C14.3 °C0 mm1010.7 Hpa
05:00:42111 °(ESE)8.2 Kts8.2 Kts16.9 Kts18.8 °C14.3 °C0 mm1010.7 Hpa
04:55:21126 °(SE)9 Kts7.3 Kts16.9 Kts18.7 °C14.6 °C0 mm1010.7 Hpa
04:50:32128 °(SE)6.4 Kts7.3 Kts16.9 Kts18.7 °C14.6 °C0 mm1010.8 Hpa
04:45:15136 °(SE)3.8 Kts7.3 Kts16.9 Kts18.7 °C14.6 °C0 mm1010.8 Hpa
04:40:36139 °(SE)7.3 Kts8.2 Kts16.9 Kts18.9 °C14.4 °C0 mm1010.7 Hpa
04:35:32140 °(SE)6.4 Kts8.2 Kts16.9 Kts18.9 °C14.5 °C0 mm1010.9 Hpa
04:30:32107 °(ESE)5.6 Kts8.2 Kts16.9 Kts18.9 °C14.5 °C0 mm1010.9 Hpa
04:25:43121 °(ESE)12.5 Kts8.2 Kts16.9 Kts18.9 °C14.4 °C0 mm1010.7 Hpa
04:20:51128 °(SE)8.2 Kts7.3 Kts16.9 Kts18.9 °C14.7 °C0 mm1010.9 Hpa
04:15:31113 °(ESE)8.2 Kts7.3 Kts16.9 Kts18.9 °C14.7 °C0 mm1010.9 Hpa
04:10:41141 °(SE)6.4 Kts8.2 Kts16.9 Kts19 °C14.5 °C0 mm1010.9 Hpa
04:05:50124 °(SE)9.9 Kts8.2 Kts16.9 Kts19 °C14.5 °C0 mm1010.9 Hpa
04:00:29158 °(SSE)8.2 Kts8.2 Kts16.9 Kts18.9 °C14.5 °C0 mm1010.7 Hpa
03:55:40142 °(SE)9.9 Kts8.2 Kts16.9 Kts19 °C14.5 °C0 mm1010.7 Hpa
03:50:49140 °(SE)7.3 Kts8.2 Kts16.9 Kts19 °C14.5 °C0 mm1010.9 Hpa